User: anonymous   Login
Location: ?
(35.4064°N, 139.3593°E)
Time: 04:00:27
(UTC+00:00)
Language:

Meteor 2-4 Rocket - Orbit

View from above orbital plane
View from above orbital plane
View from above satellite
View from above satellite

Ground track
Ground track

The orbit data is extracted from the following two-line orbital elements,

1 11289U 79021B   24164.57918982  .00000115  00000-0  54684-4 0  9994
2 11289  81.2458 193.7222 0075219 189.3714 170.6060 14.11853342330686
Epoch (UTC): 12 June 2024 13:54:02
Eccentricity: 0.0075219
inclination: 81.2458°
perigee height: 798 km
apogee height: 907 km
right ascension of ascending node: 193.7222°
argument of perigee: 189.3714°
revolutions per day: 14.11853342
mean anomaly at epoch: 170.6060°
orbit number at epoch: 33068

The dashed part of the orbit path shows where the satellite is in the earth's shadow,  

DLR